• In Belgium
  • List of Countries
  • For 7 days
  • Water Temperature
  • Satellite Maps
  • Weather Map
  • Weather Widgets
  • user-avatar
    Login

    Hourly Weather Vranic

    Today, 21 November, Tuesday

    Time Temperature Precipitation Wind Pressure Humidity
    00:00 +2°C° 0 mm 2 mps 750 mmHg 73%
    01:00 +2°C° 0 mm 2 mps 750 mmHg 73%
    02:00 +2°C° 0 mm 2 mps 750 mmHg 72%
    03:00 +2°C° 0 mm 2 mps 750 mmHg 72%
    04:00 +2°C° 0 mm 2 mps 750 mmHg 71%
    05:00 +2°C° 0 mm 2 mps 750 mmHg 70%
    06:00 +2°C° 0 mm 2 mps 749 mmHg 70%
    07:00 +2°C° 0 mm 2 mps 749 mmHg 69%
    08:00 +3°C° 0 mm 2 mps 749 mmHg 63%
    09:00 +4°C° 0 mm 3 mps 749 mmHg 56%
    10:00 +7°C° 0 mm 3 mps 749 mmHg 50%
    11:00 +8°C° 0 mm 3 mps 748 mmHg 47%
    12:00 +9°C° 0 mm 3 mps 748 mmHg 43%
    13:00 +12°C° 0 mm 2 mps 748 mmHg 40%
    14:00 +10°C° 0 mm 2 mps 748 mmHg 43%
    15:00 +10°C° 0 mm 1 mps 748 mmHg 47%
    16:00 +10°C° 0 mm 1 mps 748 mmHg 51%
    17:00 +9°C° 0 mm 1 mps 748 mmHg 52%
    18:00 +9°C° 0 mm 1 mps 748 mmHg 54%
    19:00 +8°C° 0 mm 1 mps 748 mmHg 56%
    20:00 +8°C° 0 mm 1 mps 748 mmHg 58%
    21:00 +7°C° 0 mm 2 mps 749 mmHg 60%
    22:00 +7°C° 0 mm 2 mps 749 mmHg 62%
    23:00 +6°C° 0 mm 2 mps 749 mmHg 63%

    Tomorrow, 22 November, Wednesday

    Time Temperature Precipitation Wind Pressure Humidity
    00:00 +6°C° 0 mm 2 mps 749 mmHg 64%
    01:00 +6°C° 0 mm 2 mps 749 mmHg 65%
    02:00 +6°C° 0 mm 2 mps 749 mmHg 65%
    03:00 +6°C° 0 mm 2 mps 749 mmHg 65%
    04:00 +6°C° 0 mm 2 mps 749 mmHg 65%
    05:00 +6°C° 0 mm 2 mps 749 mmHg 65%
    06:00 +6°C° 0 mm 2 mps 749 mmHg 65%
    07:00 +6°C° 0 mm 2 mps 749 mmHg 64%
    08:00 +7°C° 0 mm 2 mps 749 mmHg 61%
    09:00 +9°C° 0 mm 2 mps 749 mmHg 58%
    10:00 +10°C° 0 mm 2 mps 749 mmHg 54%
    11:00 +13°C° 0 mm 2 mps 749 mmHg 51%
    12:00 +14°C° 0 mm 2 mps 749 mmHg 49%
    13:00 +15°C° 0 mm 2 mps 748 mmHg 46%
    14:00 +14°C° 0 mm 1 mps 748 mmHg 50%
    15:00 +13°C° 0 mm 1 mps 748 mmHg 54%
    16:00 +12°C° 0 mm 1 mps 748 mmHg 59%
    17:00 +11°C° 0 mm 1 mps 748 mmHg 61%
    18:00 +11°C° 0 mm 1 mps 749 mmHg 63%
    19:00 +10°C° 0 mm 1 mps 749 mmHg 66%
    20:00 +10°C° 0 mm 1 mps 749 mmHg 67%
    21:00 +9°C° 0 mm 1 mps 749 mmHg 69%
    22:00 +9°C° 0 mm 1 mps 749 mmHg 71%
    23:00 +9°C° 0 mm 1 mps 749 mmHg 72%

    Day after tomorrow, 23 November, Thursday

    Time Temperature Precipitation Wind Pressure Humidity
    00:00 +9°C° 0 mm 1 mps 749 mmHg 74%
    01:00 +8°C° 0 mm 1 mps 749 mmHg 76%
    02:00 +8°C° 0 mm 1 mps 749 mmHg 77%
    03:00 +8°C° 0 mm 1 mps 749 mmHg 78%
    04:00 +7°C° 0 mm 1 mps 749 mmHg 79%
    05:00 +7°C° 0 mm 1 mps 749 mmHg 79%
    06:00 +7°C° 0 mm 1 mps 750 mmHg 79%
    07:00 +7°C° 0 mm 1 mps 750 mmHg 79%
    08:00 +9°C° 0 mm 1 mps 750 mmHg 72%
    09:00 +10°C° 0 mm 1 mps 750 mmHg 65%
    10:00 +12°C° 0 mm 1 mps 750 mmHg 57%
    11:00 +13°C° 0 mm 1 mps 750 mmHg 54%
    12:00 +14°C° 0 mm 1 mps 750 mmHg 50%
    13:00 +16°C° 0 mm 1 mps 750 mmHg 47%
    14:00 +14°C° 0 mm 1 mps 750 mmHg 51%
    15:00 +13°C° 0 mm 1 mps 750 mmHg 56%
    16:00 +12°C° 0 mm 1 mps 750 mmHg 60%
    17:00 +11°C° 0 mm 1 mps 750 mmHg 62%
    18:00 +11°C° 0 mm 1 mps 751 mmHg 65%
    19:00 +10°C° 0 mm 1 mps 751 mmHg 67%
    20:00 +10°C° 0 mm 1 mps 751 mmHg 68%
    21:00 +10°C° 0 mm 1 mps 752 mmHg 70%
    22:00 +9°C° 0 mm 1 mps 752 mmHg 71%
    23:00 +9°C° 0 mm 1 mps 752 mmHg 72%

    24 November, Friday

    Time Temperature Precipitation Wind Pressure Humidity
    00:00 +9°C° 0 mm 1 mps 752 mmHg 73%
    01:00 +8°C° 0 mm 1 mps 752 mmHg 74%
    02:00 +8°C° 0 mm 1 mps 752 mmHg 75%
    03:00 +8°C° 0 mm 1 mps 752 mmHg 76%
    04:00 +8°C° 0 mm 1 mps 752 mmHg 77%
    05:00 +7°C° 0 mm 1 mps 752 mmHg 78%
    06:00 +7°C° 0 mm 1 mps 752 mmHg 79%
    07:00 +7°C° 0 mm 1 mps 752 mmHg 80%
    08:00 +9°C° 0 mm 1 mps 752 mmHg 73%
    09:00 +10°C° 0 mm 1 mps 753 mmHg 66%
    10:00 +12°C° 0 mm 1 mps 753 mmHg 60%
    11:00 +12°C° 0 mm 0 mps 752 mmHg 57%
    12:00 +13°C° 0 mm 0 mps 752 mmHg 54%
    13:00 +13°C° 0 mm 0 mps 752 mmHg 51%
    14:00 +12°C° 0 mm 0 mps 752 mmHg 55%
    15:00 +11°C° 0 mm 0 mps 752 mmHg 59%
    16:00 +10°C° 0 mm 0 mps 752 mmHg 63%
    17:00 +10°C° 0 mm 0 mps 752 mmHg 66%
    18:00 +9°C° 0 mm 0 mps 753 mmHg 68%
    19:00 +9°C° 0 mm 0 mps 753 mmHg 70%
    20:00 +9°C° 0 mm 1 mps 753 mmHg 72%
    21:00 +9°C° 0 mm 1 mps 753 mmHg 74%
    22:00 +9°C° 0 mm 1 mps 754 mmHg 75%
    23:00 +8°C° 0 mm 1 mps 754 mmHg 76%

    25 November, Saturday

    Time Temperature Precipitation Wind Pressure Humidity
    00:00 +8°C° 0 mm 1 mps 754 mmHg 78%
    01:00 +8°C° 0 mm 1 mps 754 mmHg 79%
    02:00 +6°C° 0 mm 2 mps 753 mmHg 80%
    03:00 +6°C° 0 mm 2 mps 753 mmHg 81%
    04:00 +6°C° 0 mm 2 mps 753 mmHg 82%
    05:00 +6°C° 0 mm 2 mps 753 mmHg 82%
    06:00 +5°C° 0 mm 2 mps 753 mmHg 83%
    07:00 +5°C° 0 mm 2 mps 753 mmHg 83%
    08:00 +7°C° 0 mm 2 mps 753 mmHg 76%
    09:00 +9°C° 0 mm 3 mps 753 mmHg 69%
    10:00 +10°C° 0 mm 3 mps 753 mmHg 61%
    11:00 +11°C° 0 mm 3 mps 753 mmHg 58%
    12:00 +12°C° 0 mm 3 mps 753 mmHg 54%
    13:00 +14°C° 0 mm 3 mps 752 mmHg 50%
    14:00 +12°C° 0 mm 3 mps 752 mmHg 54%
    15:00 +11°C° 0 mm 3 mps 752 mmHg 59%
    16:00 +10°C° 0 mm 2 mps 752 mmHg 63%
    17:00 +10°C° 0 mm 2 mps 752 mmHg 66%
    18:00 +9°C° 0 mm 2 mps 752 mmHg 69%
    19:00 +8°C° 0 mm 2 mps 753 mmHg 72%
    20:00 +8°C° 0 mm 2 mps 753 mmHg 74%
    21:00 +7°C° 0 mm 2 mps 753 mmHg 75%
    22:00 +7°C° 0 mm 2 mps 753 mmHg 77%
    23:00 +7°C° 0 mm 2 mps 753 mmHg 77%

    26 November, Sunday

    Time Temperature Precipitation Wind Pressure Humidity
    00:00 +7°C° 0 mm 2 mps 753 mmHg 78%
    01:00 +6°C° 0 mm 2 mps 753 mmHg 79%
    02:00 +6°C° 0 mm 2 mps 753 mmHg 78%
    03:00 +6°C° 0 mm 2 mps 753 mmHg 78%
    04:00 +6°C° 0 mm 2 mps 753 mmHg 78%
    05:00 +6°C° 0 mm 2 mps 753 mmHg 77%
    06:00 +7°C° 0 mm 1 mps 753 mmHg 77%
    07:00 +7°C° 0 mm 1 mps 754 mmHg 76%
    08:00 +8°C° 0 mm 1 mps 754 mmHg 69%
    09:00 +10°C° 0 mm 1 mps 754 mmHg 62%
    10:00 +12°C° 0 mm 1 mps 754 mmHg 55%
    11:00 +13°C° 0 mm 1 mps 753 mmHg 52%
    12:00 +14°C° 0 mm 1 mps 753 mmHg 49%
    13:00 +14°C° 0 mm 0 mps 752 mmHg 46%
    14:00 +14°C° 0 mm 1 mps 752 mmHg 50%
    15:00 +13°C° 0 mm 1 mps 752 mmHg 54%
    16:00 +12°C° 0 mm 1 mps 752 mmHg 58%
    17:00 +12°C° 0 mm 1 mps 752 mmHg 59%
    18:00 +11°C° 0 mm 1 mps 752 mmHg 61%
    19:00 +11°C° 0 mm 1 mps 752 mmHg 62%
    20:00 +10°C° 0 mm 1 mps 752 mmHg 64%
    21:00 +10°C° 0 mm 1 mps 752 mmHg 66%
    22:00 +9°C° 0 mm 2 mps 752 mmHg 67%
    23:00 +8°C° 0 mm 2 mps 752 mmHg 70%
    Show more